Погода в Кульчинах

Украина / Хмельницкая область     49°45′24″N   26°54′53″E
темп.,
°C
ветер,
м/с
пор.,
м/с
влажн.,
%
обл.,
%
осадки,
мм/ч
давл.,
гПа
погр.,
м
20 апреля, вт
вт2000:00+7всв267781 0.0 1015162
03:00+5св338898 0.0 101454
06:00+4ссв239058 0.0 101354
09:00+7ссв34746 0.0 1013393
12:00+11ссв445264 0.6 10111571
15:00+13с5448100 1.6 10102004
18:00+11с455512 0.6 10101331
21:00+7ссз368215 0.8 1011124
21 апреля, ср
ср2100:00+6сз3386100 0.0 101251
03:00+5зсз3586100 0.0 101297
06:00+4зсз239095 0.0 101241
09:00+7з2476100 0.0 1013316
12:00+9зюз3678100 0.3 1012655
15:00+13зсз5754100 1.4 10121654
18:00+12з466070 1.1 10121111
21:00+9зюз3878100 2.1 1013157
22 апреля, чт
чт2200:00+9юз3884100 0.1 1014191
03:00+7юз4108870 0.3 1014235
06:00+7юз4118341 0.0 1014277
09:00+11юз6107174 0.0 1015696
12:00+12зюз676897 0.4 10151280
15:00+14юз696190 0.6 10141513
18:00+15юз59545 0.3 10131983
21:00+8ююз498790 2.3 1015235
23 апреля, пт
пт2300:00+7сз239521 0.1 101544
03:00+7ссз3592100 0.3 1015355
06:00+4ссз5595100 2.0 1016610
09:00+3ссз3697100 5.0 1018470
12:00+5сз3582100 0.8 1019717
15:00+9зсз585199 1.1 10172077
18:00+9зсз79597 0.4 10181632
21:00+5зсз6117210 0.4 1020463
24 апреля, сб
сб2400:00+2зюз410865 0.0 1020294
03:00+2зсз7138245 0.0 1021865
06:000зсз499210 0.0 1022263
09:00+4сз577437 0.0 1022890
12:00+7зсз56487 0.0 10211629
15:00+9зсз344043 0.0 10201854
18:00+10зюз454687 0.0 10191752
21:00+6юз346558 0.0 101953